Date String (YYYY-MM-DD hh:mm:ss) UTC,Instrument flags,Ambient pressure (hPa),Sample flow (lpm),Bypass flow (lpm),Sample temperature (°C),Ambient temperature (°C),ASC tube jacket temperature (°C),LED temperature (°C),Box temperature (°C),Sample RH (%),Span deviation,Mass concentration (μg/m³),Mass concentration (μg/m³),Mass concentration (μg/m³)
DateTimeUTC,F1_M11,P_M11,Q1_M11,Q2_M11,T1_M11,T2_M11,T3_M11,T4_M11,T5_M11,U1_M11,ZSPAN_M11,X0_M11,X2_M11,X1_M11
2022-06-28 20:00:00,,0831.5,5.00,0.00,29.1,28.2,00.0,37.8,31.2,16.9,0000.0,0014.34,0004.45,0003.63
2022-06-28 20:01:00,,0831.5,5.00,0.00,29.1,28.0,00.0,37.8,31.1,16.7,0000.0,0013.15,0004.48,0003.63
2022-06-28 20:02:00,,0831.5,5.00,0.00,29.1,27.3,00.0,37.7,30.9,16.8,0000.0,0013.84,0004.48,0003.64
2022-06-28 20:03:00,,0831.5,5.00,0.00,29.0,27.0,00.0,37.7,30.8,16.7,0000.0,0013.67,0004.46,0003.64
2022-06-28 20:04:00,,0831.5,4.99,0.00,29.0,27.1,00.0,37.7,30.8,16.7,0000.0,0013.64,0004.44,0003.64
2022-06-28 20:05:00,,0831.5,5.00,0.00,29.0,27.2,00.0,37.7,30.8,16.4,0000.0,0013.86,0004.47,0003.65
2022-06-28 20:06:00,,0831.4,5.00,0.00,29.0,27.4,00.0,37.7,30.9,16.8,0000.0,0013.85,0004.45,0003.65
2022-06-28 20:07:00,,0831.5,5.01,0.00,29.0,27.6,00.0,37.8,31.0,16.5,0000.0,0013.19,0004.39,0003.65
2022-06-28 20:08:00,,0831.4,5.00,0.00,29.0,27.8,00.0,37.8,31.0,16.5,0000.0,0011.49,0004.34,0003.64
2022-06-28 20:09:00,,0831.4,5.01,0.00,29.1,28.0,00.0,37.8,31.1,17.0,0000.0,0010.98,0004.33,0003.64
2022-06-28 20:10:00,,0831.4,5.00,0.00,29.1,28.1,00.0,37.8,31.1,17.1,0000.0,0011.38,0004.32,0003.64
2022-06-28 20:11:00,,0831.4,5.00,0.00,29.1,27.6,00.0,37.8,31.0,17.3,0000.0,0010.96,0004.34,0003.65
2022-06-28 20:12:00,,0831.4,5.00,0.00,29.0,27.0,00.0,37.7,30.8,17.7,0000.0,0011.28,0004.37,0003.66
2022-06-28 20:13:00,,0831.3,5.00,0.00,29.0,26.9,00.0,37.7,30.8,17.4,0000.0,0010.76,0004.45,0003.66
2022-06-28 20:14:00,,0831.3,5.00,0.00,29.0,27.0,00.0,37.7,30.8,17.3,0000.0,0010.99,0004.48,0003.69
2022-06-28 20:15:00,,0831.3,4.99,0.00,28.9,27.2,00.0,37.7,30.8,17.3,0000.0,0012.13,0004.49,0003.72
2022-06-28 20:16:00,,0831.2,5.00,0.00,29.0,27.4,00.0,37.7,30.9,17.3,0000.0,0012.63,0004.46,0003.74
2022-06-28 20:17:00,,0831.2,5.01,0.00,29.0,27.6,00.0,37.7,30.9,17.5,0000.0,0013.12,0004.44,0003.77
2022-06-28 20:18:00,,0831.1,4.99,0.00,29.0,27.8,00.0,37.8,31.0,17.9,0000.0,0013.12,0004.50,0003.80
2022-06-28 20:19:00,,0831.1,5.01,0.00,29.0,28.0,00.0,37.8,31.1,17.8,0000.0,0013.94,0004.53,0003.83
2022-06-28 20:20:00,,0831.0,5.00,0.00,29.1,28.1,00.0,37.8,31.1,17.5,0000.0,0014.95,0004.60,0003.87
2022-06-28 20:21:00,,0831.0,4.99,0.00,29.1,28.0,00.0,37.8,31.1,17.4,0000.0,0015.93,0004.69,0003.90
2022-06-28 20:22:00,,0831.0,5.00,0.00,29.1,27.3,00.0,37.7,30.9,17.5,0000.0,0017.67,0004.72,0003.92
2022-06-28 20:23:00,,0830.9,5.00,0.00,29.0,26.9,00.0,37.7,30.8,17.3,0000.0,0018.11,0004.71,0003.94
2022-06-28 20:24:00,,0830.9,5.00,0.00,29.0,26.9,00.0,37.7,30.8,17.1,0000.0,0018.02,0004.63,0003.95
2022-06-28 20:25:00,,0830.9,5.00,0.00,29.0,27.1,00.0,37.7,30.8,16.9,0000.0,0018.67,0004.65,0003.95
2022-06-28 20:26:00,,0830.8,4.99,0.00,29.0,27.3,00.0,37.7,30.8,17.3,0000.0,0017.56,0004.67,0003.95
2022-06-28 20:27:00,,0830.8,5.00,0.00,29.0,27.5,00.0,37.7,30.9,16.6,0000.0,0017.45,0004.71,0003.94
2022-06-28 20:28:00,,0830.7,5.00,0.00,29.0,27.7,00.0,37.7,31.0,17.1,0000.0,0016.85,0004.72,0003.93
2022-06-28 20:29:00,,0830.7,5.00,0.00,29.0,27.9,00.0,37.8,31.0,17.0,0000.0,0016.51,0004.72,0003.92
2022-06-28 20:30:00,,0830.8,4.99,0.00,29.1,28.0,00.0,37.8,31.1,17.0,0000.0,0016.19,0004.76,0003.92
2022-06-28 20:31:00,,0830.8,5.00,0.00,29.1,28.0,00.0,37.8,31.1,16.7,0000.0,0015.57,0004.75,0003.91
2022-06-28 20:32:00,,0830.8,5.00,0.00,29.1,27.4,00.0,37.7,30.9,16.4,0000.0,0014.57,0004.68,0003.89
2022-06-28 20:33:00,,0830.7,5.01,0.00,29.0,26.9,00.0,37.7,30.7,15.9,0000.0,0012.49,0004.63,0003.88
2022-06-28 20:34:00,,0830.6,5.00,0.00,29.0,26.9,00.0,37.7,30.7,16.4,0000.0,0012.16,0004.60,0003.86
2022-06-28 20:35:00,,0830.6,4.99,0.00,28.9,27.0,00.0,37.7,30.7,17.0,0000.0,0012.42,0004.59,0003.84
2022-06-28 20:36:00,,0830.6,5.01,0.00,28.9,27.2,00.0,37.7,30.8,17.2,0000.0,0011.94,0004.57,0003.82
2022-06-28 20:37:00,,0830.6,4.98,0.00,28.9,27.4,00.0,37.7,30.8,17.6,0000.0,0011.88,0004.54,0003.82
2022-06-28 20:38:00,,0830.6,5.00,0.00,29.0,27.6,00.0,37.7,30.9,17.3,0000.0,0011.55,0004.55,0003.82
2022-06-28 20:39:00,,0830.6,5.01,0.00,29.0,27.8,00.0,37.7,31.0,16.9,0000.0,0011.90,0004.53,0003.82
2022-06-28 20:40:00,,0830.6,5.00,0.00,29.0,28.0,00.0,37.7,31.1,16.7,0000.0,0012.28,0004.50,0003.82
2022-06-28 20:41:00,,0830.5,4.99,0.00,29.1,28.1,00.0,37.8,31.1,16.3,0000.0,0011.75,0004.48,0003.80
2022-06-28 20:42:00,,0830.5,5.01,0.00,29.1,28.2,00.0,37.8,31.2,16.2,0000.0,0011.76,0004.45,0003.79
2022-06-28 20:43:00,,0830.6,5.00,0.00,29.1,27.7,00.0,37.8,31.0,15.6,0000.0,0011.41,0004.42,0003.77
2022-06-28 20:44:00,,0830.5,5.00,0.00,29.0,27.1,00.0,37.7,30.9,15.5,0000.0,0011.42,0004.35,0003.74
2022-06-28 20:45:00,,0830.5,5.00,0.00,29.0,27.0,00.0,37.7,30.8,15.6,0000.0,0010.89,0004.30,0003.69
2022-06-28 20:46:00,,0830.5,5.01,0.00,29.0,27.1,00.0,37.7,30.8,15.3,0000.0,0010.21,0004.24,0003.65
2022-06-28 20:47:00,,0830.5,5.00,0.00,29.0,27.3,00.0,37.7,30.9,14.7,0000.0,0009.98,0004.19,0003.62
2022-06-28 20:48:00,,0830.5,5.00,0.00,29.0,27.5,00.0,37.7,30.9,14.7,0000.0,0010.04,0004.09,0003.57
2022-06-28 20:49:00,,0830.5,5.00,0.00,29.0,27.7,00.0,37.8,31.0,15.2,0000.0,0009.83,0004.01,0003.51
2022-06-28 20:50:00,,0830.6,5.01,0.00,29.1,27.9,00.0,37.8,31.1,14.8,0000.0,0009.19,0003.93,0003.45
2022-06-28 20:51:00,,0830.5,5.00,0.00,29.1,28.1,00.0,37.8,31.1,15.2,0000.0,0008.45,0003.87,0003.40
2022-06-28 20:52:00,,0830.5,5.00,0.00,29.1,28.2,00.0,37.8,31.2,14.7,0000.0,0008.28,0003.83,0003.36
2022-06-28 20:53:00,,0830.5,5.00,0.00,29.1,27.8,00.0,37.8,31.0,14.9,0000.0,0007.96,0003.80,0003.33
2022-06-28 20:54:00,,0830.5,5.00,0.00,29.1,27.1,00.0,37.7,30.8,14.8,0000.0,0007.77,0003.75,0003.30
2022-06-28 20:55:00,,0830.5,5.00,0.00,29.0,27.0,00.0,37.7,30.8,14.6,0000.0,0007.56,0003.74,0003.29
2022-06-28 20:56:00,,0830.5,4.99,0.00,29.0,27.1,00.0,37.7,30.8,14.6,0000.0,0007.52,0003.75,0003.28
2022-06-28 20:57:00,,0830.5,5.00,0.00,29.0,27.3,00.0,37.7,30.8,14.9,0000.0,0007.53,0003.74,0003.28
2022-06-28 20:58:00,,0830.5,5.00,0.00,29.0,27.5,00.0,37.7,30.9,14.8,0000.0,0007.20,0003.71,0003.28
2022-06-28 20:59:00,,0830.5,5.01,0.00,29.0,27.7,00.0,37.8,31.0,14.7,0000.0,0006.98,0003.70,0003.27
